Find Starlink 2731

NORAD ID: 48651 Int'l Des: 2021-044 Owner: SPXS Country: US Constellation: starlink operational
LEOCIRCULAR

Live Position

Loading 3D Globe...

About Starlink 2731

Description loading...

Upcoming Passes

Passes for default location (London). Set your location on the main map for personalized predictions.

Altitude History

Loading altitude history...

Two-Line Element Set

1 48651U 21044P 26126.16668980 .00068076 00000-0 21852-2 0 9993
2 48651 53.1589 206.7032 0001261 90.6411 330.0988 15.31704908 5844
Epoch: May 6, 2026 • Age: 5 hours

Current Status

Altitude 478.5 km
Velocity 7.63 km/s
Sub-Earth Point -25.46°S, 41.83°E
Launch Date May 26, 2021
Age 4.9 years
Type internet

Technical Details

Classification Payload
Mass 260.00 kg
Dry Mass 248.00 kg
Total Mass 260.00 kg
Length 0.20 m
Diameter 2.80 m
Span 9.00 m
Shape Box + pan
Manufacturer SPXS
Bus Type Starlink
Phase Status In Orbit
Owner/State SPXS/US

Most Searched